Location: Brienzwiler
(46.7508°N, 8.1014°E)
Time: 17:11:20
(UTC+00:00)

Cosmos 1842 Rocket - Pass Details

Date: 05 July 2020
Orbit: 605 x 634 km, 82.5° (Epoch: 11 August)

Event Time Altitude Azimuth Distance (km) Brightness Sun altitude
Rises 21:40:16 0° 348° (NNW) 2,888 8.5 -16.1°
Reaches altitude 10° 21:42:30 10° 346° (NNW) 1,974 7.4 -16.3°
Maximum altitude 21:46:50 69° 264° (W) 652 3.7 -16.6°
Enters shadow 21:49:03 28° 187° (S) 1,152 4.5 -16.8°
